TimeEDT,TemperatureF,Dew PointF,Humidity,Sea Level PressureIn,VisibilityMPH,Wind Direction,Wind SpeedMPH,Gust SpeedMPH,PrecipitationIn,Events,Conditions,WindDirDegrees,DateUTC
12:14 AM,48.2,39.2,71,29.68,10.0,WSW,5.8,-,N/A,,Clear,240,2012-11-01 04:14:00
12:34 AM,48.2,39.2,71,29.68,10.0,WSW,5.8,-,N/A,,Clear,250,2012-11-01 04:34:00
12:54 AM,48.2,39.2,71,29.68,10.0,West,5.8,-,N/A,,Clear,260,2012-11-01 04:54:00
1:14 AM,48.2,39.2,71,29.68,10.0,West,5.8,-,N/A,,Clear,260,2012-11-01 05:14:00
1:34 AM,48.2,39.2,71,29.69,10.0,West,6.9,-,N/A,,Clear,260,2012-11-01 05:34:00
1:54 AM,48.2,39.2,71,29.69,10.0,West,5.8,-,N/A,,Clear,260,2012-11-01 05:54:00
2:16 AM,48.2,39.2,71,29.69,10.0,West,8.1,-,N/A,,Clear,270,2012-11-01 06:16:00
2:34 AM,48.2,39.2,71,29.69,10.0,West,5.8,-,N/A,,Clear,280,2012-11-01 06:34:00
2:54 AM,50.0,39.2,66,29.69,10.0,West,5.8,-,N/A,,Clear,270,2012-11-01 06:54:00
3:14 AM,50.0,41.0,71,29.68,10.0,West,5.8,-,N/A,,Clear,280,2012-11-01 07:14:00
3:34 AM,50.0,41.0,71,29.68,10.0,WNW,5.8,-,N/A,,Clear,290,2012-11-01 07:34:00
3:54 AM,50.0,39.2,66,29.68,10.0,West,3.5,-,N/A,,Clear,270,2012-11-01 07:54:00
4:14 AM,48.2,42.8,82,29.68,10.0,Calm,Calm,-,N/A,,Clear,0,2012-11-01 08:14:00
4:35 AM,46.4,41.0,81,29.68,10.0,West,4.6,-,N/A,,Clear,270,2012-11-01 08:35:00
4:54 AM,46.4,41.0,81,-9999,10.0,West,4.6,-,N/A,,Clear,260,2012-11-01 08:54:00
5:14 AM,46.4,41.0,81,29.69,10.0,WSW,4.6,-,N/A,,Clear,250,2012-11-01 09:14:00
5:34 AM,46.4,41.0,81,29.69,10.0,West,4.6,-,N/A,,Clear,260,2012-11-01 09:34:00
5:54 AM,46.4,41.0,81,29.69,10.0,West,4.6,-,N/A,,Unknown,260,2012-11-01 09:54:00
6:16 AM,48.2,41.0,76,29.69,10.0,WSW,3.5,-,N/A,,Unknown,250,2012-11-01 10:16:00
6:34 AM,48.2,41.0,76,29.69,10.0,West,3.5,-,N/A,,Scattered Clouds,260,2012-11-01 10:34:00
6:54 AM,48.2,41.0,76,29.70,10.0,West,4.6,-,N/A,,Mostly Cloudy,270,2012-11-01 10:54:00
7:14 AM,46.4,42.8,87,29.70,10.0,Calm,Calm,-,N/A,,Unknown,0,2012-11-01 11:14:00
7:34 AM,46.4,42.8,87,29.70,10.0,West,3.5,-,N/A,,Unknown,260,2012-11-01 11:34:00
7:54 AM,46.4,42.8,87,29.71,10.0,WSW,4.6,-,N/A,,Unknown,240,2012-11-01 11:54:00
8:14 AM,46.4,42.8,87,29.71,10.0,SSW,3.5,-,N/A,,Unknown,200,2012-11-01 12:14:00
8:34 AM,48.2,42.8,82,29.72,10.0,SW,4.6,-,N/A,,Unknown,220,2012-11-01 12:34:00
8:54 AM,50.0,42.8,76,29.72,10.0,SW,5.8,-,N/A,,Unknown,230,2012-11-01 12:54:00
9:14 AM,50.0,41.0,71,29.72,10.0,West,3.5,-,N/A,,Unknown,260,2012-11-01 13:14:00
9:36 AM,51.8,42.8,71,29.73,10.0,WSW,4.6,-,N/A,,Unknown,250,2012-11-01 13:36:00
9:54 AM,51.8,42.8,71,29.73,-9999.0,West,6.9,-,N/A,,Unknown,280,2012-11-01 13:54:00
10:14 AM,53.6,39.2,58,29.73,10.0,West,5.8,-,N/A,,Scattered Clouds,260,2012-11-01 14:14:00
10:34 AM,55.4,39.2,54,29.73,10.0,West,5.8,-,N/A,,Mostly Cloudy,260,2012-11-01 14:34:00
10:54 AM,55.4,39.2,54,29.73,10.0,West,5.8,-,N/A,,Overcast,280,2012-11-01 14:54:00
11:14 AM,55.4,39.2,54,29.73,10.0,SW,5.8,-,N/A,,Overcast,220,2012-11-01 15:14:00
11:34 AM,55.4,35.6,47,29.73,10.0,WSW,9.2,-,N/A,,Overcast,250,2012-11-01 15:34:00
12:14 PM,55.4,37.4,51,29.71,10.0,WSW,8.1,-,N/A,,Overcast,240,2012-11-01 16:14:00
12:34 PM,55.4,37.4,51,29.71,10.0,West,6.9,-,N/A,,Overcast,260,2012-11-01 16:34:00
12:54 PM,55.4,39.2,54,29.71,10.0,West,6.9,-,N/A,,Overcast,280,2012-11-01 16:54:00
1:14 PM,55.4,37.4,51,29.70,10.0,West,9.2,-,N/A,,Overcast,270,2012-11-01 17:14:00
1:34 PM,57.2,37.4,48,29.69,10.0,WNW,10.4,-,N/A,,Overcast,290,2012-11-01 17:34:00
1:54 PM,55.4,39.2,54,29.68,10.0,WNW,9.2,-,N/A,,Overcast,290,2012-11-01 17:54:00
2:14 PM,55.4,39.2,54,29.68,10.0,WNW,9.2,-,N/A,,Overcast,300,2012-11-01 18:14:00
2:34 PM,55.4,35.6,47,29.68,10.0,West,9.2,-,N/A,,Scattered Clouds,280,2012-11-01 18:34:00
2:55 PM,55.4,37.4,51,29.68,10.0,WNW,10.4,-,N/A,,Clear,290,2012-11-01 18:55:00
3:15 PM,57.2,37.4,48,29.68,10.0,West,8.1,-,N/A,,Clear,280,2012-11-01 19:15:00
3:35 PM,57.2,37.4,48,29.68,10.0,West,9.2,-,N/A,,Clear,280,2012-11-01 19:35:00
3:55 PM,57.2,37.4,48,29.68,10.0,WNW,8.1,-,N/A,,Clear,290,2012-11-01 19:55:00
4:15 PM,57.2,37.4,48,29.68,10.0,West,5.8,-,N/A,,Clear,280,2012-11-01 20:15:00
4:35 PM,55.4,37.4,51,29.68,10.0,WNW,5.8,-,N/A,,Clear,300,2012-11-01 20:35:00
4:55 PM,55.4,37.4,51,29.68,10.0,WNW,3.5,-,N/A,,Clear,290,2012-11-01 20:55:00
5:15 PM,53.6,39.2,58,29.69,10.0,WNW,3.5,-,N/A,,Scattered Clouds,300,2012-11-01 21:15:00
5:35 PM,53.6,41.0,62,29.69,10.0,Calm,Calm,-,N/A,,Scattered Clouds,0,2012-11-01 21:35:00
5:55 PM,51.8,42.8,71,29.70,10.0,Calm,Calm,-,N/A,,Scattered Clouds,0,2012-11-01 21:55:00
6:15 PM,50.0,42.8,76,29.70,10.0,Calm,Calm,-,N/A,,Clear,0,2012-11-01 22:15:00
6:35 PM,48.2,42.8,82,29.71,10.0,Calm,Calm,-,N/A,,Scattered Clouds,0,2012-11-01 22:35:00
6:55 PM,46.4,42.8,87,29.72,10.0,Calm,Calm,-,N/A,,Scattered Clouds,0,2012-11-01 22:55:00
7:15 PM,48.2,44.6,87,29.72,10.0,Calm,Calm,-,N/A,,Scattered Clouds,0,2012-11-01 23:15:00
7:35 PM,48.2,44.6,87,29.72,10.0,Calm,Calm,-,N/A,,Mostly Cloudy,0,2012-11-01 23:35:00
7:55 PM,48.2,44.6,87,29.73,10.0,Calm,Calm,-,N/A,,Overcast,0,2012-11-01 23:55:00
8:15 PM,48.2,44.6,87,29.73,10.0,Calm,Calm,-,N/A,,Overcast,0,2012-11-02 00:15:00
8:36 PM,48.2,44.6,87,29.73,10.0,Calm,Calm,-,N/A,,Overcast,0,2012-11-02 00:36:00
8:55 PM,48.2,44.6,87,29.73,10.0,Calm,Calm,-,N/A,,Overcast,0,2012-11-02 00:55:00
9:15 PM,48.2,44.6,87,29.73,10.0,Calm,Calm,-,N/A,,Overcast,0,2012-11-02 01:15:00
9:35 PM,48.2,46.4,93,29.74,10.0,Calm,Calm,-,N/A,,Overcast,0,2012-11-02 01:35:00
9:55 PM,48.2,44.6,87,29.74,10.0,Calm,Calm,-,N/A,,Overcast,0,2012-11-02 01:55:00
10:15 PM,48.2,44.6,87,29.75,10.0,Calm,Calm,-,N/A,,Overcast,0,2012-11-02 02:15:00
10:35 PM,50.0,44.6,82,29.75,10.0,Calm,Calm,-,N/A,,Overcast,0,2012-11-02 02:35:00
10:55 PM,48.2,44.6,87,29.75,10.0,Calm,Calm,-,N/A,,Overcast,0,2012-11-02 02:55:00
11:15 PM,48.2,46.4,93,29.75,10.0,Calm,Calm,-,N/A,,Overcast,0,2012-11-02 03:15:00
11:35 PM,48.2,46.4,93,29.76,10.0,Calm,Calm,-,N/A,,Overcast,0,2012-11-02 03:35:00
11:55 PM,48.2,44.6,87,29.76,10.0,Calm,Calm,-,N/A,,Overcast,0,2012-11-02 03:55:00